^^
Station Historical Data
 
Daily Summary for October 17, 2018 Units:  English    Metric   Both
« Previous Day
Next Day »
Daily Weekly Monthly Yearly Custom
  Current: High: Low: Average:
Temperature: 9.5 °F TemperatureC °F 9.5 °F 10.7 °F
Dew Point: 8.3 °F DewpointC °F 8.3 °F 9.5 °F
Humidity: 92% Humidity% 92% 92%
Wind Speed: 0.0mph WindSpeedKMHmph 0.0mph 0.2mph
Wind Gust: 3.7mph WindSpeedGustKMHmph - -
WindCalm - - SSE
Pressure: 1017.1 in PressurehPa in 1017.1 in -
Precipitation: 0.0 in      
Historical Graphs
 
 
Tabular Data for October 17, 2018
Time Temperature Dew Point Pressure Wind Wind Speed Wind Gust Humidity Rainfall Rate (Hourly) solar Conditions
TemperatureC °F DewpointC °F PressurehPa in Calm     Humidity% HourlyPrecipMM in SoftwareType W/m2 Conditions
00:04 10.6 °F 9.4 °F 1019.8 in Calm     92% 0.0 in WeatherDisplay:10.37 W/m2 BKN
00:10 10.6 °F 9.4 °F 1019.8 in Calm     92% 0.0 in WeatherDisplay:10.37 W/m2 BKN
00:14 10.6 °F 9.4 °F 1019.8 in Calm     92% 0.0 in WeatherDisplay:10.37 W/m2 BKN
00:19 10.7 °F 9.4 °F 1019.7 in Calm     92% 0.0 in WeatherDisplay:10.37 W/m2 BKN
00:24 10.7 °F 9.4 °F 1019.7 in Calm     92% 0.0 in WeatherDisplay:10.37 W/m2 BKN
00:29 10.7 °F 9.4 °F 1019.7 in Calm     92% 0.0 in WeatherDisplay:10.37 W/m2 BKN
00:34 10.7 °F 9.4 °F 1019.7 in Calm     92% 0.0 in WeatherDisplay:10.37 W/m2 BKN
00:39 10.7 °F 9.4 °F 1019.7 in Calm     92% 0.0 in WeatherDisplay:10.37 W/m2 BKN
00:44 10.7 °F 9.4 °F 1019.7 in Calm     92% 0.0 in WeatherDisplay:10.37 W/m2 BKN
00:49 10.7 °F 9.5 °F 1019.6 in Calm     92% 0.0 in WeatherDisplay:10.37 W/m2 BKN
00:54 10.7 °F 9.4 °F 1019.6 in Calm     92% 0.0 in WeatherDisplay:10.37 W/m2 BKN
00:59 10.7 °F 9.5 °F 1019.4 in Calm     92% 0.0 in WeatherDisplay:10.37 W/m2 BKN
01:04 10.7 °F 9.5 °F 1019.3 in Calm     92% 0.0 in WeatherDisplay:10.37 W/m2 BKN
01:09 10.7 °F 9.5 °F 1019.3 in Calm     92% 0.0 in WeatherDisplay:10.37 W/m2 BKN
01:14 10.7 °F 9.5 °F 1019.3 in SE 0.2 mph 3.2 mph 92% 0.0 in WeatherDisplay:10.37 W/m2 BKN
01:19 10.7 °F 9.5 °F 1019.2 in ESE 4.7 mph 9.7 mph 92% 0.0 in WeatherDisplay:10.37 W/m2 BKN
01:24 10.8 °F 9.6 °F 1019.2 in Calm     92% 0.0 in WeatherDisplay:10.37 W/m2 BKN
01:29 10.8 °F 9.6 °F 1019.1 in Calm     92% 0.0 in WeatherDisplay:10.37 W/m2 BKN
01:34 10.8 °F 9.6 °F 1019.1 in Calm   1.9 mph 92% 0.0 in WeatherDisplay:10.37 W/m2 BKN
01:39 10.8 °F 9.6 °F 1019.3 in Calm     92% 0.0 in WeatherDisplay:10.37 W/m2 BKN
01:44 10.8 °F 9.6 °F 1019.5 in Calm     92% 0.0 in WeatherDisplay:10.37 W/m2 BKN
01:49 10.8 °F 9.6 °F 1019.5 in Calm     92% 0.0 in WeatherDisplay:10.37 W/m2 BKN
01:54 10.8 °F 9.6 °F 1019.5 in Calm     92% 0.0 in WeatherDisplay:10.37 W/m2 BKN
01:59 10.8 °F 9.6 °F 1019.5 in Calm     92% 0.0 in WeatherDisplay:10.37 W/m2 BKN
02:04 10.8 °F 9.7 °F 1019.4 in Calm     93% 0.0 in WeatherDisplay:10.37 W/m2 BKN
02:09 10.9 °F 9.8 °F 1019.5 in Calm     93% 0.0 in WeatherDisplay:10.37 W/m2 BKN
02:14 10.9 °F 9.7 °F 1019.5 in Calm     92% 0.0 in WeatherDisplay:10.37 W/m2 BKN
02:19 10.9 °F 9.7 °F 1019.4 in Calm     92% 0.0 in WeatherDisplay:10.37 W/m2 BKN
02:24 10.9 °F 9.7 °F 1019.4 in Calm     92% 0.0 in WeatherDisplay:10.37 W/m2 BKN
02:29 10.9 °F 9.7 °F 1019.4 in SE 2.3 mph 5.6 mph 92% 0.0 in WeatherDisplay:10.37 W/m2 BKN
02:34 10.9 °F 9.7 °F 1019.3 in Calm     92% 0.0 in WeatherDisplay:10.37 W/m2 BKN
02:39 10.9 °F 9.7 °F 1019.3 in SE 2.3 mph 5.6 mph 92% 0.0 in WeatherDisplay:10.37 W/m2 BKN
02:44 10.9 °F 9.7 °F 1019.3 in Calm     92% 0.0 in WeatherDisplay:10.37 W/m2 BKN
02:49 10.9 °F 9.7 °F 1019.2 in Calm     92% 0.0 in WeatherDisplay:10.37 W/m2 BKN
02:54 10.9 °F 9.7 °F 1019.3 in ESE 1.4 mph 5.6 mph 92% 0.0 in WeatherDisplay:10.37 W/m2 BKN
02:59 10.9 °F 9.7 °F 1019.2 in East 0.2 mph 5.6 mph 92% 0.0 in WeatherDisplay:10.37 W/m2 BKN
03:04 10.9 °F 9.7 °F 1019.2 in SE 1.4 mph 5.6 mph 92% 0.0 in WeatherDisplay:10.37 W/m2 BKN
03:09 10.9 °F 9.7 °F 1019.1 in Calm     92% 0.0 in WeatherDisplay:10.37 W/m2 BKN
03:14 10.9 °F 9.7 °F 1019.2 in Calm     92% 0.0 in WeatherDisplay:10.37 W/m2 BKN
03:19 10.9 °F 9.7 °F 1019.2 in Calm     92% 0.0 in WeatherDisplay:10.37 W/m2 BKN
03:24 10.9 °F 9.7 °F 1019.4 in Calm     92% 0.0 in WeatherDisplay:10.37 W/m2 BKN
03:29 10.9 °F 9.7 °F 1019.4 in Calm     92% 0.0 in WeatherDisplay:10.37 W/m2 BKN
03:34 10.9 °F 9.7 °F 1019.4 in Calm   3.7 mph 92% 0.0 in WeatherDisplay:10.37 W/m2 BKN
03:39 10.9 °F 9.7 °F 1019.4 in Calm     92% 0.0 in WeatherDisplay:10.37 W/m2 BKN
03:44 10.9 °F 9.7 °F 1019.4 in Calm     92% 0.0 in WeatherDisplay:10.37 W/m2 BKN
03:49 10.9 °F 9.7 °F 1019.5 in Calm     92% 0.0 in WeatherDisplay:10.37 W/m2 BKN
03:54 10.9 °F 9.7 °F 1019.5 in Calm     92% 0.0 in WeatherDisplay:10.37 W/m2 BKN
03:59 10.9 °F 9.7 °F 1019.5 in Calm     92% 0.0 in WeatherDisplay:10.37 W/m2 BKN
04:04 10.9 °F 9.7 °F 1019.5 in Calm     92% 0.0 in WeatherDisplay:10.37 W/m2 BKN
04:09 10.9 °F 9.7 °F 1019.4 in Calm     92% 0.0 in WeatherDisplay:10.37 W/m2 BKN
04:14 10.9 °F 9.7 °F 1019.4 in Calm     92% 0.0 in WeatherDisplay:10.37 W/m2 BKN
04:19 10.9 °F 9.7 °F 1019.5 in Calm     92% 0.0 in WeatherDisplay:10.37 W/m2 BKN
04:24 10.9 °F 9.7 °F 1019.3 in Calm     92% 0.0 in WeatherDisplay:10.37 W/m2 BKN
04:29 10.9 °F 9.7 °F 1019.3 in Calm     92% 0.0 in WeatherDisplay:10.37 W/m2 BKN
04:34 10.9 °F 9.7 °F 1019.3 in Calm     92% 0.0 in WeatherDisplay:10.37 W/m2 OVC
04:39 10.9 °F 9.7 °F 1019.3 in Calm     92% 0.0 in WeatherDisplay:10.37 W/m2 OVC
04:44 10.9 °F 9.7 °F 1019.2 in Calm     92% 0.0 in WeatherDisplay:10.37 W/m2 OVC
04:49 10.9 °F 9.7 °F 1019.2 in Calm     92% 0.0 in WeatherDisplay:10.37 W/m2 OVC
04:54 10.9 °F 9.7 °F 1019.1 in SE 0.2 mph 1.6 mph 92% 0.0 in WeatherDisplay:10.37 W/m2 OVC
04:59 10.9 °F 9.7 °F 1019.1 in Calm     92% 0.0 in WeatherDisplay:10.37 W/m2 OVC
05:04 10.9 °F 9.7 °F 1019.1 in Calm     92% 0.0 in WeatherDisplay:10.37 W/m2 OVC
05:09 10.9 °F 9.7 °F 1018.9 in Calm     92% 0.0 in WeatherDisplay:10.37 W/m2 OVC
05:14 10.8 °F 9.6 °F 1019.0 in SSE 1.1 mph 5.6 mph 92% 0.0 in WeatherDisplay:10.37 W/m2 OVC
05:19 10.8 °F 9.6 °F 1019.2 in Calm     92% 0.0 in WeatherDisplay:10.37 W/m2 OVC
05:24 10.8 °F 9.6 °F 1019.1 in Calm     92% 0.0 in WeatherDisplay:10.37 W/m2 OVC
05:29 10.8 °F 9.6 °F 1018.9 in Calm     92% 0.0 in WeatherDisplay:10.37 W/m2 OVC
05:34 10.8 °F 9.6 °F 1019.1 in Calm     92% 0.0 in WeatherDisplay:10.37 W/m2
05:39 10.8 °F 9.6 °F 1019.1 in SSE 2.7 mph 6.4 mph 92% 0.0 in WeatherDisplay:10.37 W/m2
05:44 10.7 °F 9.5 °F 1019.2 in SSE 1.1 mph 4.8 mph 92% 0.0 in WeatherDisplay:10.37 W/m2
05:49 10.7 °F 9.4 °F 1019.1 in Calm     92% 0.0 in WeatherDisplay:10.37 W/m2
05:54 10.7 °F 9.4 °F 1019.2 in Calm     92% 0.0 in WeatherDisplay:10.37 W/m2
05:59 10.7 °F 9.4 °F 1019.2 in SSE 1.8 mph 6.4 mph 92% 0.0 in WeatherDisplay:10.37 W/m2
06:04 10.6 °F 9.4 °F 1019.2 in Calm     92% 0.0 in WeatherDisplay:10.37 W/m2
06:09 10.6 °F 9.4 °F 1019.2 in Calm     92% 0.0 in WeatherDisplay:10.37 W/m2
06:14 10.6 °F 9.3 °F 1019.2 in Calm     92% 0.0 in WeatherDisplay:10.37 W/m2
06:19 10.6 °F 9.3 °F 1019.1 in Calm     92% 0.0 in WeatherDisplay:10.37 W/m2
06:24 10.6 °F 9.3 °F 1019.1 in SSE 0.6 mph 3.2 mph 92% 0.0 in WeatherDisplay:10.37 W/m2
06:29 10.5 °F 9.3 °F 1019.1 in Calm     92% 0.0 in WeatherDisplay:10.37 W/m2
06:34 10.4 °F 9.2 °F 1019.1 in Calm     92% 0.0 in WeatherDisplay:10.37 W/m2
06:39 10.4 °F 9.2 °F 1018.9 in Calm     92% 0.0 in WeatherDisplay:10.37 W/m2
06:44 10.4 °F 9.2 °F 1018.8 in Calm     92% 0.0 in WeatherDisplay:10.37 W/m2
06:49 10.4 °F 9.2 °F 1018.7 in Calm     92% 0.0 in WeatherDisplay:10.37 W/m2
06:54 10.4 °F 9.2 °F 1018.7 in Calm     92% 0.0 in WeatherDisplay:10.37 W/m2
06:59 10.3 °F 9.1 °F 1018.7 in Calm     92% 0.0 in WeatherDisplay:10.37 W/m2
07:04 10.3 °F 9.1 °F 1018.8 in Calm     92% 0.0 in WeatherDisplay:10.37 W/m2
07:09 10.3 °F 9.1 °F 1018.8 in Calm     92% 0.0 in WeatherDisplay:10.37 W/m2
07:14 10.3 °F 9.1 °F 1018.8 in Calm     92% 0.0 in WeatherDisplay:10.37 W/m2
07:19 10.3 °F 9.1 °F 1018.8 in Calm     92% 0.0 in WeatherDisplay:10.37 W/m2
07:24 10.3 °F 9.1 °F 1018.8 in Calm     92% 0.0 in WeatherDisplay:10.37 W/m2
07:29 10.3 °F 9.1 °F 1018.9 in Calm     92% 0.0 in WeatherDisplay:10.37 W/m2
07:34 10.3 °F 9.1 °F 1018.8 in Calm     92% 0.0 in WeatherDisplay:10.37 W/m2
07:39 10.4 °F 9.2 °F 1018.7 in Calm     92% 0.0 in WeatherDisplay:10.37 W/m2
07:44 10.4 °F 9.2 °F 1018.7 in Calm     92% 0.0 in WeatherDisplay:10.37 W/m2
07:49 10.4 °F 9.2 °F 1018.7 in Calm     92% 0.0 in WeatherDisplay:10.37 W/m2
07:54 10.4 °F 9.2 °F 1018.7 in Calm     92% 0.0 in WeatherDisplay:10.37 W/m2
07:59 10.4 °F 9.2 °F 1018.7 in Calm     92% 0.0 in WeatherDisplay:10.37 W/m2
08:04 10.4 °F 9.2 °F 1018.6 in Calm     92% 0.0 in WeatherDisplay:10.37 W/m2
08:09 10.4 °F 9.2 °F 1018.7 in Calm     92% 0.0 in WeatherDisplay:10.37 W/m2
08:14 10.4 °F 9.2 °F 1018.6 in Calm     92% 0.0 in WeatherDisplay:10.37 W/m2
08:19 10.4 °F 9.2 °F 1018.6 in Calm     92% 0.0 in WeatherDisplay:10.37 W/m2
08:24 10.4 °F 9.2 °F 1018.6 in Calm     92% 0.0 in WeatherDisplay:10.37 W/m2
08:29 10.5 °F 9.3 °F 1018.6 in Calm     92% 0.0 in WeatherDisplay:10.37 W/m2
08:34 10.5 °F 9.4 °F 1018.5 in Calm     93% 0.0 in WeatherDisplay:10.37 W/m2
08:39 10.5 °F 9.4 °F 1018.6 in Calm     93% 0.0 in WeatherDisplay:10.37 W/m2
08:44 10.5 °F 9.4 °F 1018.6 in Calm     93% 0.0 in WeatherDisplay:10.37 W/m2
08:49 10.6 °F 9.4 °F 1018.7 in Calm     93% 0.0 in WeatherDisplay:10.37 W/m2
08:54 10.6 °F 9.4 °F 1018.8 in Calm     93% 0.0 in WeatherDisplay:10.37 W/m2
08:59 10.6 °F 9.4 °F 1018.7 in Calm     93% 0.0 in WeatherDisplay:10.37 W/m2
09:04 10.6 °F 9.4 °F 1018.7 in Calm     93% 0.0 in WeatherDisplay:10.37 W/m2
09:09 10.6 °F 9.4 °F 1018.8 in Calm     93% 0.0 in WeatherDisplay:10.37 W/m2
09:14 10.6 °F 9.5 °F 1018.8 in Calm     93% 0.0 in WeatherDisplay:10.37 W/m2
09:19 10.6 °F 9.5 °F 1018.7 in Calm     93% 0.0 in WeatherDisplay:10.37 W/m2
09:24 10.6 °F 9.5 °F 1018.7 in Calm   1.9 mph 93% 0.0 in WeatherDisplay:10.37 W/m2
09:29 10.6 °F 9.5 °F 1018.7 in Calm     93% 0.0 in WeatherDisplay:10.37 W/m2
09:34 10.6 °F 9.5 °F 1018.6 in SSE 0.5 mph 3.7 mph 93% 0.0 in WeatherDisplay:10.37 W/m2
09:39 10.6 °F 9.5 °F 1018.7 in Calm     93% 0.0 in WeatherDisplay:10.37 W/m2
09:44 10.6 °F 9.5 °F 1018.7 in SSE 0.3 mph 3.2 mph 93% 0.0 in WeatherDisplay:10.37 W/m2
09:49 10.6 °F 9.5 °F 1018.7 in SSE 0.6 mph 5.6 mph 93% 0.0 in WeatherDisplay:10.37 W/m2
09:54 10.6 °F 9.5 °F 1018.8 in Calm     93% 0.0 in WeatherDisplay:10.37 W/m2
09:59 10.6 °F 9.5 °F 1018.8 in Calm     93% 0.0 in WeatherDisplay:10.37 W/m2
10:04 10.7 °F 9.6 °F 1018.8 in Calm     93% 0.0 in WeatherDisplay:10.37 W/m2
10:09 10.7 °F 9.6 °F 1018.9 in Calm     93% 0.0 in WeatherDisplay:10.37 W/m2
10:14 10.7 °F 9.6 °F 1019.1 in Calm     93% 0.0 in WeatherDisplay:10.37 W/m2
10:19 10.7 °F 9.6 °F 1019.2 in Calm     93% 0.0 in WeatherDisplay:10.37 W/m2
10:24 10.7 °F 9.6 °F 1019.2 in Calm     93% 0.0 in WeatherDisplay:10.37 W/m2
10:29 10.7 °F 9.6 °F 1019.2 in Calm   1.9 mph 93% 0.0 in WeatherDisplay:10.37 W/m2
10:34 10.8 °F 9.7 °F 1019.1 in Calm     93% 0.0 in WeatherDisplay:10.37 W/m2
10:39 10.8 °F 9.7 °F 1019.1 in Calm   1.9 mph 93% 0.0 in WeatherDisplay:10.37 W/m2
10:44 10.8 °F 9.7 °F 1019.1 in Calm     93% 0.0 in WeatherDisplay:10.37 W/m2
10:49 10.8 °F 9.7 °F 1019.0 in Calm     93% 0.0 in WeatherDisplay:10.37 W/m2
10:54 10.8 °F 9.7 °F 1018.9 in Calm     93% 0.0 in WeatherDisplay:10.37 W/m2
10:59 10.8 °F 9.7 °F 1018.9 in Calm     93% 0.0 in WeatherDisplay:10.37 W/m2
11:04 10.8 °F 9.7 °F 1019.0 in Calm     93% 0.0 in WeatherDisplay:10.37 W/m2
11:09 10.9 °F 9.8 °F 1018.9 in Calm     93% 0.0 in WeatherDisplay:10.37 W/m2
11:14 10.9 °F 9.8 °F 1018.9 in Calm     93% 0.0 in WeatherDisplay:10.37 W/m2
11:19 10.9 °F 9.8 °F 1019.0 in Calm     93% 0.0 in WeatherDisplay:10.37 W/m2
11:24 10.9 °F 9.8 °F 1018.9 in Calm     93% 0.0 in WeatherDisplay:10.37 W/m2
11:29 10.9 °F 9.8 °F 1018.9 in Calm     93% 0.0 in WeatherDisplay:10.37 W/m2
11:34 10.9 °F 9.8 °F 1018.9 in Calm     93% 0.0 in WeatherDisplay:10.37 W/m2
11:39 11.0 °F 9.9 °F 1018.9 in South 0.5 mph 3.2 mph 93% 0.0 in WeatherDisplay:10.37 W/m2
11:44 11.1 °F 9.9 °F 1019.0 in Calm     93% 0.0 in WeatherDisplay:10.37 W/m2
11:49 11.1 °F 10.0 °F 1019.1 in Calm     93% 0.0 in WeatherDisplay:10.37 W/m2
11:54 11.1 °F 10.0 °F 1019.1 in Calm     93% 0.0 in WeatherDisplay:10.37 W/m2
11:59 11.1 °F 10.0 °F 1019.1 in Calm     93% 0.0 in WeatherDisplay:10.37 W/m2
12:04 11.1 °F 10.0 °F 1018.8 in Calm     93% 0.0 in WeatherDisplay:10.37 W/m2
12:09 11.2 °F 10.1 °F 1018.7 in Calm     93% 0.0 in WeatherDisplay:10.37 W/m2
12:14 11.2 °F 10.1 °F 1018.7 in Calm     93% 0.0 in WeatherDisplay:10.37 W/m2
12:19 11.2 °F 10.1 °F 1018.8 in Calm     93% 0.0 in WeatherDisplay:10.37 W/m2
12:24 11.2 °F 10.1 °F 1018.7 in Calm     93% 0.0 in WeatherDisplay:10.37 W/m2
12:29 11.3 °F 10.2 °F 1018.7 in Calm     93% 0.0 in WeatherDisplay:10.37 W/m2
12:34 11.3 °F 10.2 °F 1018.6 in Calm     93% 0.0 in WeatherDisplay:10.37 W/m2
12:39 11.3 °F 10.2 °F 1018.6 in Calm     93% 0.0 in WeatherDisplay:10.37 W/m2
12:44 11.3 °F 10.2 °F 1018.6 in Calm     93% 0.0 in WeatherDisplay:10.37 W/m2
12:49 11.3 °F 10.2 °F 1018.6 in SSW 0.8 mph 5.6 mph 93% 0.0 in WeatherDisplay:10.37 W/m2
12:54 11.3 °F 10.2 °F 1018.7 in Calm     93% 0.0 in WeatherDisplay:10.37 W/m2
12:59 11.3 °F 10.2 °F 1018.6 in Calm     93% 0.0 in WeatherDisplay:10.37 W/m2
13:04 11.3 °F 10.2 °F 1018.6 in Calm     93% 0.0 in WeatherDisplay:10.37 W/m2
13:09 11.3 °F 10.2 °F 1018.5 in South 0.6 mph 5.6 mph 93% 0.0 in WeatherDisplay:10.37 W/m2
13:14 11.3 °F 10.2 °F 1018.6 in Calm     93% 0.0 in WeatherDisplay:10.37 W/m2
13:19 11.3 °F 10.2 °F 1018.6 in Calm     93% 0.0 in WeatherDisplay:10.37 W/m2
13:24 11.4 °F 10.3 °F 1018.6 in Calm     93% 0.0 in WeatherDisplay:10.37 W/m2
13:29 11.4 °F 10.3 °F 1018.6 in Calm     93% 0.0 in WeatherDisplay:10.37 W/m2
13:34 11.3 °F 10.2 °F 1018.6 in South 0.6 mph 5.6 mph 93% 0.0 in WeatherDisplay:10.37 W/m2
13:39 11.2 °F 10.1 °F 1018.6 in Calm     93% 0.0 in WeatherDisplay:10.37 W/m2
13:44 11.3 °F 10.2 °F 1018.6 in Calm     93% 0.0 in WeatherDisplay:10.37 W/m2
13:49 11.3 °F 10.2 °F 1018.6 in Calm     93% 0.0 in WeatherDisplay:10.37 W/m2
13:54 11.2 °F 10.1 °F 1018.5 in Calm     93% 0.0 in WeatherDisplay:10.37 W/m2
13:59 11.2 °F 10.1 °F 1018.4 in Calm     93% 0.0 in WeatherDisplay:10.37 W/m2
14:04 11.2 °F 10.1 °F 1018.4 in Calm     93% 0.0 in WeatherDisplay:10.37 W/m2 BKN
14:09 11.3 °F 10.2 °F 1018.3 in Calm     93% 0.0 in WeatherDisplay:10.37 W/m2 BKN
14:14 11.3 °F 10.2 °F 1018.3 in SSE 2.9 mph 6.4 mph 93% 0.0 in WeatherDisplay:10.37 W/m2 BKN
14:19 11.2 °F 10.1 °F 1018.2 in South 0.6 mph 5.6 mph 93% 0.0 in WeatherDisplay:10.37 W/m2 BKN
14:24 11.2 °F 10.1 °F 1018.3 in Calm     93% 0.0 in WeatherDisplay:10.37 W/m2 BKN
14:29 11.2 °F 10.1 °F 1018.3 in SSE 2.9 mph 6.4 mph 93% 0.0 in WeatherDisplay:10.37 W/m2 BKN
14:34 11.1 °F 10.0 °F 1018.3 in Calm   1.9 mph 93% 0.0 in WeatherDisplay:10.37 W/m2 BKN
14:38 11.1 °F 9.9 °F 1018.3 in SSE 0.6 mph   93% 0.0 in WeatherDisplay:10.37 W/m2 BKN
14:44 11.1 °F 9.9 °F 1018.3 in Calm     93% 0.0 in WeatherDisplay:10.37 W/m2 BKN
14:49 11.0 °F 9.7 °F 1018.2 in Calm     92% 0.0 in WeatherDisplay:10.37 W/m2 BKN
14:54 11.0 °F 9.7 °F 1018.2 in Calm   5.6 mph 92% 0.0 in WeatherDisplay:10.37 W/m2 BKN
14:59 11.0 °F 9.7 °F 1018.1 in Calm     92% 0.0 in WeatherDisplay:10.37 W/m2 BKN
15:04 11.1 °F 9.8 °F 1018.2 in Calm     92% 0.0 in WeatherDisplay:10.37 W/m2 BKN
15:09 11.1 °F 9.8 °F 1018.1 in Calm     92% 0.0 in WeatherDisplay:10.37 W/m2 BKN
15:14 11.1 °F 9.8 °F 1018.1 in Calm     92% 0.0 in WeatherDisplay:10.37 W/m2 BKN
15:19 11.1 °F 9.8 °F 1018.0 in Calm     92% 0.0 in WeatherDisplay:10.37 W/m2 BKN
15:24 11.1 °F 9.8 °F 1017.9 in Calm     92% 0.0 in WeatherDisplay:10.37 W/m2 BKN
15:29 11.0 °F 9.7 °F 1018.0 in SSW 2.6 mph 12.9 mph 92% 0.0 in WeatherDisplay:10.37 W/m2 BKN
15:34 11.1 °F 9.8 °F 1018.0 in Calm     92% 0.0 in WeatherDisplay:10.37 W/m2 BKN
15:39 11.1 °F 9.8 °F 1018.0 in Calm     92% 0.0 in WeatherDisplay:10.37 W/m2 BKN
15:44 11.0 °F 9.7 °F 1017.9 in SE 2.9 mph 5.6 mph 92% 0.0 in WeatherDisplay:10.37 W/m2 BKN
15:49 10.9 °F 9.7 °F 1017.9 in SE 1.0 mph 6.4 mph 92% 0.0 in WeatherDisplay:10.37 W/m2 BKN
15:54 10.9 °F 9.7 °F 1018.0 in Calm   5.6 mph 92% 0.0 in WeatherDisplay:10.37 W/m2 BKN
15:59 10.9 °F 9.7 °F 1017.9 in Calm     92% 0.0 in WeatherDisplay:10.37 W/m2 BKN
16:04 10.9 °F 9.7 °F 1017.9 in Calm     92% 0.0 in WeatherDisplay:10.37 W/m2 BKN
16:09 10.8 °F 9.6 °F 1017.9 in Calm     92% 0.0 in WeatherDisplay:10.37 W/m2 BKN
16:14 10.8 °F 9.6 °F 1017.8 in SSE 1.8 mph 7.4 mph 92% 0.0 in WeatherDisplay:10.37 W/m2 BKN
16:19 10.7 °F 9.5 °F 1017.7 in Calm   3.7 mph 92% 0.0 in WeatherDisplay:10.37 W/m2 BKN
16:24 10.7 °F 9.5 °F 1017.8 in SSE 1.3 mph 7.4 mph 92% 0.0 in WeatherDisplay:10.37 W/m2 BKN
16:29 10.8 °F 9.6 °F 1017.8 in Calm     92% 0.0 in WeatherDisplay:10.37 W/m2 BKN
16:34 10.8 °F 9.6 °F 1017.8 in Calm     92% 0.0 in WeatherDisplay:10.37 W/m2 BKN
16:39 10.8 °F 9.6 °F 1017.7 in Calm     92% 0.0 in WeatherDisplay:10.37 W/m2 BKN
16:44 10.9 °F 9.7 °F 1017.6 in SSE 0.3 mph 3.7 mph 92% 0.0 in WeatherDisplay:10.37 W/m2 BKN
16:49 10.9 °F 9.7 °F 1017.6 in Calm     92% 0.0 in WeatherDisplay:10.37 W/m2 BKN
16:54 10.9 °F 9.7 °F 1017.6 in Calm     92% 0.0 in WeatherDisplay:10.37 W/m2 BKN
16:59 10.9 °F 9.7 °F 1017.5 in Calm     92% 0.0 in WeatherDisplay:10.37 W/m2 BKN
17:04 11.0 °F 9.7 °F 1017.5 in Calm   1.9 mph 92% 0.0 in WeatherDisplay:10.37 W/m2 FEW
17:09 11.0 °F 9.7 °F 1017.5 in Calm     92% 0.0 in WeatherDisplay:10.37 W/m2 FEW
17:14 10.9 °F 9.7 °F 1017.5 in Calm     92% 0.0 in WeatherDisplay:10.37 W/m2 FEW
17:19 10.9 °F 9.7 °F 1017.4 in Calm     92% 0.0 in WeatherDisplay:10.37 W/m2 FEW
17:24 10.9 °F 9.8 °F 1017.3 in Calm     93% 0.0 in WeatherDisplay:10.37 W/m2 FEW
17:29 10.9 °F 9.8 °F 1017.3 in Calm     93% 0.0 in WeatherDisplay:10.37 W/m2 FEW
17:34 10.8 °F 9.7 °F 1017.3 in Calm     93% 0.0 in WeatherDisplay:10.37 W/m2 FEW
17:39 10.7 °F 9.5 °F 1017.3 in Calm     92% 0.0 in WeatherDisplay:10.37 W/m2 FEW
17:44 10.7 °F 9.4 °F 1017.3 in Calm     92% 0.0 in WeatherDisplay:10.37 W/m2 FEW
17:49 10.6 °F 9.4 °F 1017.3 in Calm     93% 0.0 in WeatherDisplay:10.37 W/m2 FEW
17:54 10.4 °F 9.3 °F 1017.3 in Calm     93% 0.0 in WeatherDisplay:10.37 W/m2 FEW
17:59 10.3 °F 9.3 °F 1017.2 in Calm     93% 0.0 in WeatherDisplay:10.37 W/m2 FEW
18:04 10.2 °F 9.2 °F 1017.3 in Calm     93% 0.0 in WeatherDisplay:10.37 W/m2 FEW
18:09 10.2 °F 9.1 °F 1017.3 in Calm     93% 0.0 in WeatherDisplay:10.37 W/m2 FEW
18:14 10.1 °F 8.8 °F 1017.2 in Calm   5.6 mph 92% 0.0 in WeatherDisplay:10.37 W/m2 FEW
18:19 10.1 °F 9.0 °F 1017.3 in Calm     93% 0.0 in WeatherDisplay:10.37 W/m2 FEW
18:24 9.9 °F 8.7 °F 1017.3 in Calm     92% 0.0 in WeatherDisplay:10.37 W/m2 FEW
18:29 9.9 °F 8.8 °F 1017.3 in Calm     93% 0.0 in WeatherDisplay:10.37 W/m2 FEW
18:34 9.8 °F 8.8 °F 1017.3 in Calm     93% 0.0 in WeatherDisplay:10.37 W/m2 CLR
18:39 9.8 °F 8.7 °F 1017.3 in Calm     93% 0.0 in WeatherDisplay:10.37 W/m2 CLR
18:44 9.7 °F 8.5 °F 1017.2 in Calm     92% 0.0 in WeatherDisplay:10.37 W/m2 CLR
18:49 9.7 °F 8.4 °F 1017.2 in Calm     92% 0.0 in WeatherDisplay:10.37 W/m2 CLR
18:54 9.6 °F 8.4 °F 1017.2 in Calm     92% 0.0 in WeatherDisplay:10.37 W/m2 CLR
18:59 9.6 °F 8.3 °F 1017.3 in Calm     92% 0.0 in WeatherDisplay:10.37 W/m2 CLR
19:04 9.6 °F 8.3 °F 1017.2 in Calm   1.9 mph 92% 0.0 in WeatherDisplay:10.37 W/m2 FEW
19:09 9.6 °F 8.4 °F 1017.2 in Calm     92% 0.0 in WeatherDisplay:10.37 W/m2 FEW
19:14 9.6 °F 8.3 °F 1017.2 in Calm     92% 0.0 in WeatherDisplay:10.37 W/m2 FEW
19:19 9.6 °F 8.3 °F 1017.2 in Calm     92% 0.0 in WeatherDisplay:10.37 W/m2 FEW
19:24 9.6 °F 8.3 °F 1017.1 in Calm     92% 0.0 in WeatherDisplay:10.37 W/m2 FEW
19:29 9.5 °F 8.3 °F 1017.1 in Calm   3.7 mph 92% 0.0 in WeatherDisplay:10.37 W/m2 FEW
Tuulensuunkaari, Veikkola, Suomi
Compliments of Weather Underground - 2.25 mb